Weather Roundup
Issued by NWS Chicago, IL

Home | Current Version | Previous Version | Graphics & Text | Print | Product List | Glossary On
Versions: 1 2 3 4 5 6 7 8 9 10 11 12 13 14 15 16 17 18 19 20 21 22 23 24 25 26 27 28 29 30 31 32 33 34 35 36 37 38 39 40 41 42 43 44 45 46 47 48 49 50
000
NZUS59 KLOT 270003
HRRLOT

CHICAGO AREA WEATHER ROUNDUP
NATIONAL WEATHER SERVICE CHICAGO/ROMEOVILLE IL
700 PM CDT WED JUL 26 2017

NOTE: "FAIR" INDICATES FEW OR NO CLOUDS BELOW 12,000 FEET WITH NO
SIGNIFICANT WEATHER AND/OR OBSTRUCTIONS TO VISIBILITY.

* THESE STATIONS ARE NOT UNDER NWS QUALITY CONTROL. THEY ALSO MAY NOT
  REPORT WEATHER SUCH AS PRECIPITATION OR FOG.

ILZ005-006-012>014-019>023-270100-
NORTHEAST ILLINOIS

CITY           SKY/WX    TMP DP  RH WIND       PRES   REMARKS
OHARE          CLOUDY    81  71  71 S8        29.96F HX  85
6HR MIN TEMP:  81; 6HR MAX TEMP:  85;

MIDWAY         CLOUDY    82  70  66 S6        29.96F HX  86
6HR MIN TEMP:  82; 6HR MAX TEMP:  85;

AURORA         CLOUDY    80  74  81 S5        29.97S HX  85
6HR MIN TEMP:  80; 6HR MAX TEMP:  83;

LANSING*       CLOUDY    79  69  72 SE6       29.97F HX  82
JOLIET*        CLOUDY    81  75  80 SE7       29.95F HX  87
WAUKEGAN       CLOUDY    76  72  87 SE3       29.97S
6HR MIN TEMP:  76; 6HR MAX TEMP:  85;

DUPAGE AIRPORT CLOUDY    80  73  79 SE6       29.95F HX  84
6HR MIN TEMP:  80; 6HR MAX TEMP:  84;

WHEELING       CLOUDY    82  72  71 SW5       29.97F HX  87
6HR MIN TEMP:  82; 6HR MAX TEMP:  86;

MORRIS*        PTSUNNY   80  74  83 SE3       29.95R HX  84
LEWIS AIRPORT* PTSUNNY   79  70  75 SE7       29.96F HX  81
NORTHERLY ISL    N/A     81  67  62 SE5         N/A  HX  83
$$

WIZ051-052-058>065-066-070>072-270100-
SOUTHEAST WISCONSIN

CITY           SKY/WX    TMP DP  RH WIND       PRES   REMARKS
MILWAUKEE      CLOUDY    76  70  82 E5        29.98R
6HR MIN TEMP:  74; 6HR MAX TEMP:  85;

KENOSHA*       CLOUDY    79  70  74 E5        29.98S HX  82
RACINE*        PTSUNNY   77  69  76 S7        30.00S
WAUKESHA       CLOUDY    72  70  94 E6        29.99S
$$

INZ001>003-010>013-019-020-270100-
NORTHWEST INDIANA

CITY           SKY/WX    TMP DP  RH WIND       PRES   REMARKS
GARY*          CLOUDY    82  70  65 S6        29.98F HX  86
MICHIGAN CITY* NOT AVBL
RENSSELAER*    NOT AVBL
VALPARAISO     CLOUDY    80  72  76 SE5       30.00F HX  84
$$

LMZ740>746-270100-
SOUTHERN LAKE MICHIGAN

STATION/POSITION TIME  SKY/WX   TEMP WIND        PRES    VSBY
                                AIR  DIR/SP/G
                 (UTC)          (F)  (DEG/KT/KT) (MB)    (MI)
HARRISON CRIB    2340            81  190/ 11/ 12   N/A
BURNHAM HARBOR   0000            81                N/A
CALUMET HARBOR   2330            81  170/  6/  9 1014.6S
BURNS HARBOR     2340            80  190/  8/ 10 1015.2F
MICHIGAN CITY    2340            80  170/  7/  9   N/A
$$

ABBREVIATIONS USED IN REMARKS
   TC - TEMPERATURE IN CELSIUS
  WCI - WIND CHILL INDEX
   HX - HEAT INDEX
  VSB - VISIBILITY
$$




USA.gov is the U.S. government's official web portal to all federal, state and local government web resources and services.